Location: Newark
(48.6461°N, 4.3644°W)
Time: 04:12:13
(UTC+00:00)

S-56A Canister/Altair - All Passes

Search period start: 18 January 2020 00:00
Search period end: 28 January 2020 00:00
Orbit: 634 x 2498 km, 38.9° (Epoch: 17 January)

Date Brightness Start Highest point End Pass type
(mag) Time Alt. Az. Time Alt. Az. Time Alt. Az.
18 Jan - 01:03:03 10° SW 01:06:46 26° S 01:10:57 10° ESE night (unlit)
18 Jan - 03:06:06 10° WSW 03:09:43 20° SSW 03:14:04 10° SSE visible
18 Jan - 22:28:59 10° SSW 22:31:35 15° SSE 22:34:05 10° SE night (unlit)
19 Jan - 00:30:39 10° SW 00:34:18 25° S 00:38:13 10° ESE night (unlit)
19 Jan - 02:33:41 10° WSW 02:37:11 21° SSW 02:41:17 10° SE night (unlit)
19 Jan - 21:56:41 10° S 21:59:05 14° SSE 22:01:22 10° SE night (unlit)
19 Jan - 23:58:11 10° SW 00:01:49 24° S 00:05:33 10° ESE night (unlit)
20 Jan - 02:01:14 10° WSW 02:04:40 21° SSW 02:08:34 10° SE night (unlit)
20 Jan - 21:24:21 10° S 21:26:35 13° SSE 21:28:39 10° SE night (unlit)
20 Jan - 23:25:41 10° SW 23:29:22 23° S 23:32:57 10° ESE night (unlit)
21 Jan - 01:28:46 10° WSW 01:32:10 21° S 01:35:55 10° SE night (unlit)
21 Jan - 20:52:00 10° S 20:54:03 12° SSE 20:55:56 10° SE visible
21 Jan - 22:53:06 10° SW 22:56:53 23° S 23:00:25 10° ESE night (unlit)
22 Jan - 00:56:15 10° WSW 00:59:41 22° S 01:03:20 10° SE night (unlit)
22 Jan - 03:01:57 10° SSW 03:02:30 10° SSW 03:03:03 10° SSW night (unlit)
22 Jan - 20:19:38 10° S 20:21:29 12° SSE 20:23:12 10° SE visible
22 Jan - 22:20:28 10° SW 22:24:24 23° S 22:27:56 10° ESE night (unlit)
23 Jan - 00:23:41 10° WSW 00:27:13 23° S 00:30:48 10° SE night (unlit)
23 Jan - 02:28:43 10° SW 02:29:57 11° SSW 02:31:16 10° S night (unlit)
23 Jan - 19:47:17 10° S 19:48:55 11° SSE 19:50:26 10° SE visible
23 Jan - 21:47:46 10° SW 21:51:55 23° S 21:55:30 10° ESE visible
23 Jan - 23:51:02 10° WSW 23:54:45 24° S 23:58:20 10° SE night (unlit)
24 Jan - 01:55:45 10° SW 01:57:27 12° SSW 01:59:12 10° S night (unlit)
24 Jan - 19:15:00 10° SSE 19:16:18 11° SSE 19:17:33 10° SE visible
24 Jan - 21:14:58 10° SW 21:19:23 22° S 21:23:05 10° ESE visible
24 Jan - 23:18:20 10° WSW 23:22:16 25° S 23:25:54 10° SE night (unlit)
25 Jan - 01:22:52 10° SW 01:24:58 13° SSW 01:27:06 10° S night (unlit)
25 Jan - 18:42:56 10° SSE 18:43:41 10° SSE 18:44:24 10° SE visible
25 Jan - 20:42:08 10° SW 20:46:51 22° SSE 20:50:41 10° ESE visible
25 Jan - 22:45:33 10° WSW 22:49:48 26° S 22:53:32 10° SE night (unlit)
26 Jan - 00:50:01 10° SW 00:52:29 14° SSW 00:54:57 10° SSE night (unlit)
26 Jan - 20:09:13 10° SW 20:14:17 22° SSE 20:18:18 10° ESE visible
26 Jan - 22:12:42 10° WSW 22:17:19 27° S 22:21:11 10° SE visible
27 Jan - 00:17:08 10° WSW 00:20:00 16° SSW 00:22:47 10° SSE night (unlit)
27 Jan - 19:36:15 10° SSW 19:41:41 22° SSE 19:45:55 10° ESE visible
27 Jan - 21:39:46 10° WSW 21:44:48 29° S 21:48:52 10° ESE visible
27 Jan - 23:44:14 10° WSW 23:47:33 18° SSW 23:50:37 10° SSE night (unlit)
